Weather in Staré Město

Czech Republic     49°04′33″N   17°26′39″E
temp.,
°C
wind,
m/s
gust,
m/s
humid.,
%
clouds,
%
prec.,
mm/h
press.,
hPa
HPBL,
m
5 march, fri
fri501:00+6wsw248182 0.1 1013130
04:00+4nnw229389 0.1 101367
07:00+2nne598395 0.2 1014521
10:00+1n61095100 1.6 1016630
13:00+3n8107196 1.9 10191138
16:00+2nne7106254 0.0 10221059
19:00−1n4116926 0.0 1025513
22:00−1n39740 0.0 1028447
6 march, sat
sat601:00−2nnw25740 0.0 1030200
04:00−2nnw12750 0.0 103127
07:00−2n11750 0.0 103331
10:00+2n24470 0.0 10331176
13:00+3nnw23380 0.0 10331551
16:00+3nw23390 0.0 10311341
19:000sse11530 0.0 103122
22:00−1s12540 0.0 103221
7 march, sun
sun701:00−1ssw22560 0.0 103122
04:00−2ssw12580 0.0 102922
07:00−1s11550 0.0 102821
10:00+3ssw23400 0.0 1026614
13:00+6ssw33370 0.0 10241034
16:00+5wsw23420 0.0 1021973
19:00+1ssw125513 0.0 102122
22:000sw115916 0.0 102022
8 march, mon
mon801:000w116034 0.0 102021
04:00−1nw116431 0.0 101921
07:00−1nw257515 0.0 1019200
10:00+2nnw576525 0.0 1019917
13:00+5nnw455437 0.0 10191135
16:00+5nnw566036 0.0 10191106
19:000ne389729 0.0 1021256
22:00−1nne348570 0.0 1022108
9 march, tue
tue901:00−2n237777 0.0 1023126
04:00−2n2576100 0.0 1022216
07:00−2n257880 0.0 1023260
10:00+2nne33503 0.0 1023824
13:00+4n32401 0.0 10231285
16:00+3nnw44470 0.0 10221074
19:00−1ene226034 0.0 102321
22:00−1ne115941 0.0 102421